Tracking 28790 objects as of 19-Apr-2024
HD Live streaming from Space Station
objects crossing your sky now

SL-12 R/B(2)

Track SL-12 R/B(2) now!


NORAD ID: 21221
Int'l Code: 1991-025E
Perigee: 19,096.8 km
Apogee: 19,166.7 km
Inclination: 64.8 °
Period: 675.5 minutes
Semi major axis: 25502 km
RCS: 2.0946 m2 (large)
Launch date: April 4, 1991
Source: Commonwealth of Independent States (former USSR) (CIS)
Launch site: TYURATAM MISSILE AND SPACE COMPLEX (TTMTR)

Note: This is a ROCKET BODY
Your satellite tracking list
Your tracking list is empty




NASA's NSSDC Master Catalog

Two Line Element Set (TLE):
1 21221U 91025E   24108.25918892 -.00000051  00000-0  00000-0 0  9991
2 21221  64.8222 331.6185 0013719 218.7374 348.2661  2.13168310257171
Source of the keplerian elements: AFSPC